CYSAT-1 (61501 NORAD) Tracking and Keplerian Element Data

This shows tracking and keplerian element data for the satellite.

Feedback or suggestion? Click here.




ElementValue
Catalog61501
NameCYSAT-1
Epoch Orbit73
Epoch Day286.88217619
Epoch Year2024
RAAN92.395
Inclination51.6366
Eccentricity0.0008823
Argument of Perigee85.8206
Mean Anonmoly274.3792
Mean Motion15.51695007
Decay Rate0.00132519
L11 61501U 98067WZ 24286.88217619 .00132519 00000+0 21544-2 0 9995
L22 61501 51.6366 92.3950 0008823 85.8206 274.3792 15.51695007 733



Live tracking and technical data element details for CYSAT-1 (NORAD 61501). CYSAT-1 can be tracked NOW for your location showing map with azimuth and elevation plus other details from your city location.







IsCatalogInMostPopularTable: catalog: 61501, numindb: 29
Update: records affected: 1



GetName: 61501 CYSAT-1

Hit Count: updated at: Fri, 06 Dec 2024 12:11:19 GMT